Regional Weather Roundup
Issued by NWS

Home | Current Version | Previous Version | Text Only | Print | Product List | Glossary On
Versions: 1 2 3 4 5 6 7 8 9 10 11 12 13 14 15 16 17 18 19 20 21 22 23 24 25 26 27 28 29 30 31 32 33 34 35 36 37 38 39 40 41 42 43 44 45 46 47 48 49 50
000
ASUS43 KDTX 191301
RWRMI
MICHIGAN HOURLY REGIONAL WEATHER ROUNDUP
NATIONAL WEATHER SERVICE DETROIT/PONTIAC MI
900 AM EDT SUN APR 19 2015

NOTE: "FAIR" INDICATES FEW OR NO CLOUDS BELOW 12,000 FEET WITH NO
SIGNIFICANT WEATHER AND/OR OBSTRUCTION TO VISIBILITY.

MIZ047>049-052>055-059>063-066>070-074>076-081>083-191400-
SOUTHEAST LOWER MICHIGAN

CITY           SKY/WX    TMP DP  RH WIND       PRES   REMARKS
ADRIAN         PTSUNNY   47  31  53 E16       29.99F
ALMA           MOSUNNY   45  32  60 E9        30.05F
ANN ARBOR      MOSUNNY   50  29  44 E10G18    30.02F
BAD AXE        MOSUNNY   43  29  58 SE9       30.13F
CARO           PTSUNNY   46  29  53 E12G17    30.08F
DETROIT CITY   MOSUNNY   49  33  54 E14G23    30.05F
DETROIT        PTSUNNY   51  29  42 NE14G20   30.04F
FLINT          MOSUNNY   49  28  44 E15       30.05F
GROSSE ILE     MOSUNNY   48  32  53 NE9G18    30.02F
HILLSDALE      PTSUNNY   51  29  43 E14G22    29.96F
HOWELL         MOSUNNY   49  27  42 E13G21    30.01F

CITY           SKY/WX    TMP DP  RH WIND       PRES   REMARKS
JACKSON        MOSUNNY   50  28  42 E15       29.98F
LAMBERTVILLE   PTSUNNY   48  34  57 E12G20    29.99F
LANSING        MOSUNNY   50  28  42 E13       30.00F
LAPEER         FAIR      45  30  57 E7        30.07F
MASON          MOSUNNY   48  28  46 E12G18    29.99F
MONROE         PTSUNNY   48  32  53 E9        30.00F
PONTIAC        PTSUNNY   47  28  47 E12G24    30.03F
PORT HOPE        N/A     41  33  73 E14       30.13F
PORT HURON     PTSUNNY   48  30  49 E15G23    30.10F
TRI CITIES     PTSUNNY   47  30  51 E13       30.08F
TROY           MOSUNNY   49  28  43 E13G21    30.07F
SAGINAW HB     PTSUNNY   46  30  53 E12       30.07F
$$
MIZ043>046-050>051-056>058-064>065-071>073-077>080-191400-
SOUTHWEST LOWER MICHIGAN

CITY           SKY/WX    TMP DP  RH WIND       PRES   REMARKS
BATTLE CREEK   PTSUNNY   51  28  41 E12       29.96F
BENTON HARBOR  PTSUNNY   53  31  42 E16G26    29.89F
BIG RAPIDS     PTSUNNY   47  29  49 E13G25    30.02F
COLDWATER      PTSUNNY   50  29  43 E13       29.94F
FREMONT        FAIR      48  25  41 E15G21    29.97F
HOLLAND        PTSUNNY   52  32  46 E15       29.94F
GRAND RAPIDS   PTSUNNY   47  30  51 E18       29.97F
IONIA          FAIR      47  32  56 E13       29.99F
KALAMAZOO      PTSUNNY   52  29  41 E12       29.95F
LUDINGTON      PTSUNNY   51  28  41 SE17G24   29.95F
MARSHALL       PTSUNNY   50  28  43 E8G17     29.96F
MOUNT PLEASANT MOSUNNY   46  31  58 E8        30.06F
MUSKEGON       PTSUNNY   52  29  41 E17       29.94F
SOUTH HAVEN    CLOUDY    55  27  34 E16       29.91F
$$
MIZ016>042-191400-
NORTHERN LOWER MICHIGAN

CITY           SKY/WX    TMP DP  RH WIND       PRES   REMARKS
ALPENA         SUNNY     41  30  65 SE14G24   30.17F
BEAVER ISLAND  MOSUNNY   42  30  62 E16       30.07F
BELLAIRE       MOSUNNY   47  24  39 E6G17     30.05F
CADILLAC       MOSUNNY   46  28  49 SE15G23   30.03F
CHARLEVOIX     MOSUNNY   45  28  52 E16       30.08F
FRANKFORT      MOSUNNY   53  18  25 SE12G17   29.97F
GAYLORD        MOSUNNY   42  25  50 SE15G22   30.08F
GRAYLING       PTSUNNY   40  27  58 E8        30.09F WCI  35
HARBOR SPRINGS MOSUNNY   42  28  56 E14G22    30.09F
HOUGHTON LAKE  MOSUNNY   45  26  47 E17G24    30.08F
MANISTEE       PTSUNNY   50  25  37 E16G24    29.97F
OSCODA         MOSUNNY   42  32  67 E14       30.15F
PELLSTON       SUNNY     42  27  55 E14G22    30.12F
ROGERS CITY    SUNNY     40  32  72 E14       30.18S WCI  33
TRAVERSE CITY  MOSUNNY   48  26  42 SE7       30.02F
$$
MIZ007>008-015-191400-
EASTERN UPPER MICHIGAN

CITY           SKY/WX    TMP DP  RH WIND       PRES   REMARKS
KINROSS        MOSUNNY   37  28  70 E17       30.16F WCI  28
MACKINAC ISLAN SUNNY     37  31  81 E20G31    30.14F WCI  26
NEWBERRY       MOSUNNY   38  29  69 E18G24    30.10S WCI  28
S. S. MARIE    SUNNY     38  25  59 SE16G26   30.16F WCI  29
$$
MIZ004>006-011>014-085-191400-
CENTRAL UPPER MICHIGAN

CITY           SKY/WX    TMP DP  RH WIND       PRES   REMARKS
MANISTIQUE     MOSUNNY   42  30  63 E14G28    30.05F
ESCANABA       PTSUNNY   43  28  56 E15       30.01F
MENOMINEE      PTSUNNY   43  28  56 E9        29.97F
SAWYER-GWINN   SUNNY     41  27  56 S13       29.99F
$$
MIZ001>003-009>011-084-191400-
WESTERN UPPER MICHIGAN

CITY           SKY/WX    TMP DP  RH WIND       PRES   REMARKS
IRON MOUNTAIN  CLOUDY    41  27  57 SE8       29.96F
HOUGHTON       LGT RAIN  35  30  82 E10       29.94F WCI  27
COPPER HARBOR    N/A     40  28  62 S14G26    29.98F WCI  32
IRONWOOD       CLOUDY    43  30  61 SE16G29   29.76F
$$

ABBREVIATIONS USED IN REMARKS
   TC - TEMPERATURE IN CELSIUS
  WCI - WIND CHILL INDEX
   HX - HEAT INDEX
  VSB - VISIBILITY




USA.gov is the U.S. government's official web portal to all federal, state and local government web resources and services.